TimeICT,TemperatureF,Dew PointF,Humidity,Sea Level PressureIn,VisibilityMPH,Wind Direction,Wind SpeedMPH,Gust SpeedMPH,PrecipitationIn,Events,Conditions,WindDirDegrees,DateUTC
12:30 AM,77.0,73.4,89,29.86,5.0,Variable,2.3,-,N/A,,Mostly Cloudy,0,2013-01-12 17:30:00
1:00 AM,78,74,86,29.83,5,East,3.5,,,,Mist,100,2013-01-12 18:00:00
1:00 AM,77.0,73.4,89,29.86,5.0,Variable,2.3,-,N/A,,Mostly Cloudy,0,2013-01-12 18:00:00
1:30 AM,75.2,71.6,89,29.86,5.0,Calm,Calm,-,N/A,,Mostly Cloudy,0,2013-01-12 18:30:00
2:00 AM,75.2,71.6,89,29.86,5.0,Calm,Calm,-,N/A,,Mostly Cloudy,0,2013-01-12 19:00:00
2:30 AM,75.2,71.6,89,29.86,5.0,Calm,Calm,-,N/A,,Mostly Cloudy,0,2013-01-12 19:30:00
3:00 AM,75.2,71.6,89,29.83,5.0,Variable,2.3,-,N/A,,Mostly Cloudy,0,2013-01-12 20:00:00
3:30 AM,75.2,71.6,89,29.83,5.0,Variable,1.2,-,N/A,,Mostly Cloudy,0,2013-01-12 20:30:00
4:00 AM,75.2,71.6,89,29.83,5.0,Calm,Calm,-,N/A,,Mostly Cloudy,0,2013-01-12 21:00:00
4:30 AM,73.4,71.6,94,29.83,5.0,Calm,Calm,-,N/A,,Mostly Cloudy,0,2013-01-12 21:30:00
5:00 AM,73.4,71.6,94,29.83,5.0,Calm,Calm,-,N/A,,Mostly Cloudy,0,2013-01-12 22:00:00
5:30 AM,73.4,71.6,94,29.83,5.0,North,1.2,-,N/A,,Mostly Cloudy,350,2013-01-12 22:30:00
6:00 AM,73.4,71.6,94,29.86,5.0,Calm,Calm,-,N/A,,Mostly Cloudy,0,2013-01-12 23:00:00
6:30 AM,73.4,71.6,94,29.86,5.0,Variable,2.3,-,N/A,,Scattered Clouds,0,2013-01-12 23:30:00
7:00 AM,73,72,98,29.85,5,Calm,Calm,,,,Mist,,2013-01-13 00:00:00
7:00 AM,73.4,71.6,94,29.86,5.0,Calm,Calm,-,N/A,,Scattered Clouds,0,2013-01-13 00:00:00
7:30 AM,75.2,73.4,94,29.89,5.6,Calm,Calm,-,N/A,,Scattered Clouds,0,2013-01-13 00:30:00
8:00 AM,77.0,73.4,89,29.89,5.6,Variable,2.3,-,N/A,,Scattered Clouds,0,2013-01-13 01:00:00
8:30 AM,80.6,73.4,79,29.92,6.2,East,5.8,-,N/A,,Scattered Clouds,90,2013-01-13 01:30:00
9:00 AM,84.2,73.4,70,29.92,6.2,Calm,Calm,-,N/A,,Scattered Clouds,0,2013-01-13 02:00:00
9:30 AM,84.2,71.6,66,29.92,6.2,ENE,5.8,-,N/A,,Scattered Clouds,70,2013-01-13 02:30:00
10:00 AM,84.2,69.8,62,29.92,6.2,East,5.8,-,N/A,,Scattered Clouds,90,2013-01-13 03:00:00
10:30 AM,86.0,69.8,58,29.92,6.2,East,5.8,-,N/A,,Scattered Clouds,100,2013-01-13 03:30:00
11:00 AM,86.0,71.6,62,29.92,6.2,NNW,5.8,-,N/A,,Scattered Clouds,330,2013-01-13 04:00:00
11:30 AM,86.0,71.6,62,29.89,6.2,NNW,4.6,-,N/A,,Scattered Clouds,330,2013-01-13 04:30:00
12:00 PM,87.8,71.6,58,29.89,6.2,East,4.6,-,N/A,,Mostly Cloudy,80,2013-01-13 05:00:00
12:30 PM,84.2,71.6,66,29.89,6.2,West,6.9,-,N/A,,Mostly Cloudy,280,2013-01-13 05:30:00
1:00 PM,87,73,55,29.84,6,WNW,5.8,,,,Scattered Clouds,300,2013-01-13 06:00:00
1:00 PM,86.0,71.6,62,29.86,6.2,WNW,9.2,-,N/A,,Mostly Cloudy,290,2013-01-13 06:00:00
1:30 PM,87.8,73.4,62,29.86,6.2,WSW,8.1,-,N/A,,Mostly Cloudy,250,2013-01-13 06:30:00
2:00 PM,87.8,71.6,58,29.83,6.2,West,12.7,-,N/A,,Scattered Clouds,270,2013-01-13 07:00:00
2:30 PM,87.8,71.6,58,29.83,6.2,West,11.5,-,N/A,,Scattered Clouds,270,2013-01-13 07:30:00
3:00 PM,87.8,71.6,58,29.83,6.2,West,11.5,-,N/A,,Scattered Clouds,280,2013-01-13 08:00:00
3:30 PM,86.0,71.6,62,29.83,6.2,West,10.4,-,N/A,,Scattered Clouds,270,2013-01-13 08:30:00
4:00 PM,87.8,71.6,58,29.83,6.2,West,11.5,-,N/A,,Scattered Clouds,270,2013-01-13 09:00:00
4:30 PM,86.0,71.6,62,29.83,6.2,WNW,11.5,-,N/A,,Scattered Clouds,300,2013-01-13 09:30:00
5:00 PM,86.0,71.6,62,29.83,6.2,WNW,11.5,-,N/A,,Scattered Clouds,300,2013-01-13 10:00:00
5:30 PM,84.2,71.6,66,29.83,6.2,WNW,9.2,-,N/A,,Scattered Clouds,300,2013-01-13 10:30:00
6:00 PM,84.2,69.8,62,29.83,6.2,WNW,11.5,-,N/A,,Scattered Clouds,300,2013-01-13 11:00:00
6:30 PM,82.4,71.6,70,29.83,6.2,WNW,9.2,-,N/A,,Scattered Clouds,300,2013-01-13 11:30:00
7:00 PM,85,72,56,29.81,6,NW,5.8,,,,Scattered Clouds,310,2013-01-13 12:00:00
8:00 PM,82.4,71.6,70,29.86,6.2,WNW,8.1,-,N/A,,Scattered Clouds,300,2013-01-13 13:00:00
8:30 PM,80.6,71.6,74,29.86,5.6,WNW,8.1,-,N/A,,Scattered Clouds,300,2013-01-13 13:30:00
9:00 PM,80.6,71.6,74,29.86,5.6,WNW,8.1,-,N/A,,Scattered Clouds,300,2013-01-13 14:00:00
9:30 PM,80.6,69.8,70,29.89,5.6,WNW,8.1,-,N/A,,Scattered Clouds,300,2013-01-13 14:30:00
10:00 PM,80.6,69.8,70,29.89,5.6,WNW,8.1,-,N/A,,Scattered Clouds,300,2013-01-13 15:00:00
10:30 PM,80.6,69.8,70,29.89,5.6,WNW,6.9,-,N/A,,Scattered Clouds,300,2013-01-13 15:30:00
11:00 PM,80.6,69.8,70,29.89,5.6,WNW,5.8,-,N/A,,Scattered Clouds,300,2013-01-13 16:00:00
11:30 PM,78.8,69.8,74,29.89,5.6,Calm,Calm,-,N/A,,Scattered Clouds,0,2013-01-13 16:30:00